User: anonymous   Login
Location: Hains Lake
(37.8540°N, 99.8578°W)
Time: 10:54:43
(UTC+00:00)
Language:

Courier 1B Rocket - Orbit

View from above orbital plane
View from above orbital plane
View from above satellite
View from above satellite

Ground track
Ground track

The orbit data is extracted from the following two-line orbital elements,

1 00059U 60013B   21107.67989413  .00000095  00000-0  90820-5 0  9990
2 00059  28.2485  95.4512 0189049 319.6720  38.9942 13.52983705987596
Epoch (UTC): 17 April 2021 16:19:02
Eccentricity: 0.0189049
inclination: 28.2485°
perigee height: 920 km
apogee height: 1202 km
right ascension of ascending node: 95.4512°
argument of perigee: 319.6720°
revolutions per day: 13.52983705
mean anomaly at epoch: 38.9942°
orbit number at epoch: 98759

The dashed part of the orbit path shows where the satellite is in the earth's shadow,  

DLR